nws-alerts: Checking more than four warning/county codes can delay the loading of your pages. You should use a cron job to get the data.
EllijayWeather Station Historical Data
Daily Summary for February 3, 2019 Units:  Metric    English   Both
Daily Weekly Monthly Yearly Custom
  High: Low: Average:
Temperature: 14.9 °C 3.7 °C 8.9 °C
Dew Point: 11.2 °C 2.9 °C 6.9 °C
Humidity: 99% 69% 88%
Wind Speed: 3.2km/h 0km/h 0km/h
Wind Gust: 8km/h - -
Wind- - SE
Pressure: 1023.2 hPa 1018.8 hPa -
Precipitation: 2.54 mm    
Historical Graphs
 
 
Tabular Data for February 3, 2019
Time Temperature Dew Point Pressure Wind Wind Speed Wind Gust Humidity Rainfall Rate (Hourly) solar
00:04 7.7 °C 3.2 °C 1023.2 hPa Calm     73% 0 mm meteobridge W/m2
00:09 7.6 °C 3.3 °C 1023.2 hPa Calm     74% 0 mm meteobridge W/m2
00:14 7.6 °C 3.3 °C 1022.9 hPa Calm     74% 0 mm meteobridge W/m2
00:19 7.5 °C 3.2 °C 1022.9 hPa Calm     74% 0 mm meteobridge W/m2
00:24 7.4 °C 3.1 °C 1022.9 hPa Calm     74% 0 mm meteobridge W/m2
00:29 7.4 °C 3.1 °C 1022.6 hPa Calm     74% 0 mm meteobridge W/m2
00:34 7.4 °C 3.3 °C 1022.6 hPa Calm     75% 0 mm meteobridge W/m2
00:39 7.4 °C 3.1 °C 1022.6 hPa Calm     74% 0 mm meteobridge W/m2
00:44 7.3 °C 3.2 °C 1022.6 hPa Calm     75% 0 mm meteobridge W/m2
00:49 7.3 °C 3.2 °C 1022.6 hPa Calm     75% 0 mm meteobridge W/m2
00:54 7.2 °C 3.3 °C 1022.6 hPa Calm     76% 0 mm meteobridge W/m2
00:59 7.2 °C 3.3 °C 1022.6 hPa Calm     76% 0 mm meteobridge W/m2
01:04 7.1 °C 3.2 °C 1022.6 hPa Calm     76% 0 mm meteobridge W/m2
01:09 7 °C 3.1 °C 1022.6 hPa Calm     76% 0 mm meteobridge W/m2
01:14 6.9 °C 3 °C 1022.6 hPa Calm     76% 0 mm meteobridge W/m2
01:19 6.8 °C 2.9 °C 1022.6 hPa Calm     76% 0 mm meteobridge W/m2
01:24 6.7 °C 3 °C 1022.6 hPa Calm     77% 0 mm meteobridge W/m2
01:29 6.7 °C 3 °C 1022.6 hPa Calm     77% 0 mm meteobridge W/m2
01:34 6.7 °C 3.1 °C 1022.2 hPa Calm     78% 0 mm meteobridge W/m2
01:39 6.7 °C 3.1 °C 1022.2 hPa Calm     78% 0 mm meteobridge W/m2
01:43 6.6 °C 3 °C 1022.2 hPa Calm     78% 0 mm meteobridge W/m2
01:49 6.6 °C 3 °C 1021.9 hPa Calm     78% 0 mm meteobridge W/m2
01:54 6.6 °C 3 °C 1021.9 hPa Calm     78% 0 mm meteobridge W/m2
01:59 6.6 °C 3 °C 1021.9 hPa Calm     78% 0 mm meteobridge W/m2
02:04 6.6 °C 3 °C 1021.9 hPa Calm     78% 0 mm meteobridge W/m2
02:09 6.5 °C 2.9 °C 1022.2 hPa Calm     78% 0 mm meteobridge W/m2
02:14 6.5 °C 2.9 °C 1022.2 hPa Calm     78% 0 mm meteobridge W/m2
02:19 6.4 °C 3 °C 1022.2 hPa Calm     79% 0 mm meteobridge W/m2
02:24 6.4 °C 3 °C 1021.9 hPa Calm     79% 0 mm meteobridge W/m2
02:29 6.4 °C 3 °C 1021.9 hPa Calm     79% 0 mm meteobridge W/m2
02:34 6.3 °C 2.9 °C 1021.9 hPa Calm     79% 0 mm meteobridge W/m2
02:38 6.3 °C 2.9 °C 1021.9 hPa Calm     79% 0 mm meteobridge W/m2
02:44 6.3 °C 3.1 °C 1021.9 hPa Calm     80% 0 mm meteobridge W/m2
02:49 6.3 °C 3.1 °C 1021.9 hPa Calm     80% 0 mm meteobridge W/m2
02:54 6.4 °C 3.4 °C 1021.9 hPa Calm     81% 0 mm meteobridge W/m2
02:59 6.4 °C 3.2 °C 1021.9 hPa Calm     80% 0 mm meteobridge W/m2
03:04 6.5 °C 3.3 °C 1021.9 hPa Calm     80% 0 mm meteobridge W/m2
03:09 6.6 °C 3.4 °C 1021.9 hPa Calm     80% 0 mm meteobridge W/m2
03:14 6.6 °C 3.4 °C 1021.6 hPa Calm     80% 0 mm meteobridge W/m2
03:19 6.7 °C 3.5 °C 1021.6 hPa Calm     80% 0 mm meteobridge W/m2
03:24 6.7 °C 3.5 °C 1021.6 hPa Calm     80% 0 mm meteobridge W/m2
03:29 6.7 °C 3.5 °C 1021.6 hPa Calm     80% 0 mm meteobridge W/m2
03:34 6.7 °C 3.5 °C 1021.2 hPa Calm     80% 0 mm meteobridge W/m2
03:39 6.8 °C 3.8 °C 1021.6 hPa Calm     81% 0 mm meteobridge W/m2
03:44 6.8 °C 3.8 °C 1021.6 hPa Calm     81% 0 mm meteobridge W/m2
03:49 6.9 °C 4.4 °C 1021.6 hPa Calm     84% 0 mm meteobridge W/m2
03:54 6.9 °C 4.7 °C 1021.6 hPa Calm     86% 0.25 mm meteobridge W/m2
03:59 6.9 °C 5.1 °C 1021.6 hPa Calm     88% 0.25 mm meteobridge W/m2
04:04 6.8 °C 5.3 °C 1021.6 hPa Calm     90% 0.25 mm meteobridge W/m2
04:09 6.7 °C 5.2 °C 1021.2 hPa Calm     90% 0.51 mm meteobridge W/m2
04:14 6.6 °C 5.2 °C 1021.2 hPa Calm     91% 0.51 mm meteobridge W/m2
04:19 6.6 °C 5.4 °C 1021.2 hPa Calm     92% 0.51 mm meteobridge W/m2
04:24 6.5 °C 5.3 °C 1021.2 hPa Calm     92% 0.51 mm meteobridge W/m2
04:29 6.5 °C 5.3 °C 1021.2 hPa Calm     92% 0.51 mm meteobridge W/m2
04:34 6.5 °C 5.4 °C 1021.2 hPa Calm     93% 0.51 mm meteobridge W/m2
04:39 6.5 °C 5.6 °C 1021.2 hPa Calm     94% 0.51 mm meteobridge W/m2
04:44 6.6 °C 5.7 °C 1021.2 hPa Calm     94% 0.51 mm meteobridge W/m2
04:49 6.6 °C 5.7 °C 1021.2 hPa Calm     94% 0.76 mm meteobridge W/m2
04:54 6.6 °C 5.7 °C 1021.2 hPa Calm     94% 1.02 mm meteobridge W/m2
04:59 6.6 °C 5.9 °C 1021.2 hPa Calm     95% 1.52 mm meteobridge W/m2
05:03 6.6 °C 5.9 °C 1021.2 hPa Calm     95% 1.52 mm meteobridge W/m2
05:09 6.7 °C 6 °C 1020.9 hPa Calm     95% 1.27 mm meteobridge W/m2
05:14 6.7 °C 6 °C 1020.9 hPa Calm     95% 1.27 mm meteobridge W/m2
05:19 6.7 °C 6 °C 1020.9 hPa Calm     95% 1.27 mm meteobridge W/m2
05:24 6.7 °C 6 °C 1020.9 hPa Calm     95% 1.27 mm meteobridge W/m2
05:29 6.8 °C 6.2 °C 1020.9 hPa Calm     96% 1.27 mm meteobridge W/m2
05:34 6.7 °C 6.1 °C 1020.9 hPa Calm     96% 1.27 mm meteobridge W/m2
05:39 6.8 °C 6.1 °C 1020.9 hPa Calm     95% 1.27 mm meteobridge W/m2
05:44 6.8 °C 6.2 °C 1020.9 hPa Calm     96% 1.27 mm meteobridge W/m2
05:49 6.8 °C 6.2 °C 1020.9 hPa Calm     96% 1.02 mm meteobridge W/m2
05:54 6.8 °C 6.2 °C 1020.9 hPa Calm     96% 0.51 mm meteobridge W/m2
05:59 6.8 °C 6.2 °C 1020.9 hPa Calm     96% 0 mm meteobridge W/m2
06:04 6.8 °C 6.2 °C 1020.9 hPa Calm     96% 0 mm meteobridge W/m2
06:09 6.8 °C 6.2 °C 1020.9 hPa Calm     96% 0 mm meteobridge W/m2
06:14 6.9 °C 6.3 °C 1020.9 hPa Calm     96% 0 mm meteobridge W/m2
06:19 6.9 °C 6.3 °C 1021.2 hPa Calm     96% 0.25 mm meteobridge W/m2
06:24 6.9 °C 6.3 °C 1021.2 hPa Calm     96% 0.25 mm meteobridge W/m2
06:29 7 °C 6.4 °C 1021.2 hPa Calm     96% 0.25 mm meteobridge W/m2
06:34 7 °C 6.4 °C 1021.2 hPa Calm     96% 0.25 mm meteobridge W/m2
06:39 7.1 °C 6.5 °C 1021.2 hPa Calm   1.6 km/h 96% 0.25 mm meteobridge W/m2
06:44 7.1 °C 6.7 °C 1021.2 hPa Calm     97% 0.25 mm meteobridge W/m2
06:49 7.1 °C 6.7 °C 1021.2 hPa Calm     97% 0.25 mm meteobridge W/m2
06:54 7.1 °C 6.7 °C 1021.2 hPa Calm     97% 0.25 mm meteobridge W/m2
06:59 7.1 °C 6.7 °C 1021.2 hPa Calm     97% 0.25 mm meteobridge W/m2
07:04 7.2 °C 6.6 °C 1021.2 hPa Calm     96% 0.25 mm meteobridge W/m2
07:09 7.1 °C 6.7 °C 1021.2 hPa Calm     97% 0.25 mm meteobridge W/m2
07:14 7.2 °C 6.8 °C 1021.6 hPa Calm     97% 0 mm meteobridge W/m2
07:19 7.2 °C 6.8 °C 1021.6 hPa Calm     97% 0.25 mm meteobridge W/m2
07:24 7.2 °C 6.8 °C 1021.6 hPa Calm     97% 0.25 mm meteobridge W/m2
07:29 7.2 °C 6.8 °C 1021.6 hPa Calm     97% 0.25 mm meteobridge W/m2
07:34 7.2 °C 6.8 °C 1021.6 hPa Calm     97% 0.25 mm meteobridge W/m2
07:39 7.2 °C 6.8 °C 1021.9 hPa Calm     97% 0.25 mm meteobridge W/m2
07:44 7.2 °C 6.8 °C 1021.6 hPa Calm     97% 0.25 mm meteobridge W/m2
07:49 7.2 °C 6.8 °C 1021.9 hPa Calm     97% 0.25 mm meteobridge W/m2
07:54 7.2 °C 6.8 °C 1021.9 hPa Calm     97% 0.25 mm meteobridge W/m2
07:59 7.2 °C 6.8 °C 1021.9 hPa Calm     97% 0.25 mm meteobridge W/m2
08:04 7.2 °C 6.8 °C 1021.9 hPa Calm     97% 0.25 mm meteobridge W/m2
08:09 7.3 °C 6.9 °C 1021.9 hPa Calm     97% 0.25 mm meteobridge W/m2
08:14 7.3 °C 6.9 °C 1021.9 hPa Calm     97% 0.25 mm meteobridge W/m2
08:19 7.3 °C 6.9 °C 1021.9 hPa Calm     97% 0 mm meteobridge W/m2
08:24 7.3 °C 6.9 °C 1021.9 hPa Calm     97% 0 mm meteobridge W/m2
08:29 7.3 °C 6.9 °C 1021.6 hPa Calm     97% 0 mm meteobridge W/m2
08:34 7.4 °C 7.1 °C 1021.6 hPa Calm     98% 0 mm meteobridge W/m2
08:39 7.5 °C 7.2 °C 1021.9 hPa Calm     98% 0 mm meteobridge W/m2
08:44 7.5 °C 7.2 °C 1021.9 hPa Calm     98% 0 mm meteobridge W/m2
08:49 7.6 °C 7.3 °C 1021.9 hPa Calm     98% 0 mm meteobridge W/m2
08:54 7.7 °C 7.4 °C 1021.9 hPa Calm     98% 0 mm meteobridge W/m2
08:59 7.8 °C 7.5 °C 1021.9 hPa Calm     98% 0 mm meteobridge W/m2
09:03 7.8 °C 7.5 °C 1021.9 hPa Calm     98% 0 mm meteobridge W/m2
09:09 7.9 °C 7.6 °C 1022.2 hPa Calm     98% 0 mm meteobridge W/m2
09:14 8.1 °C 7.8 °C 1022.2 hPa Calm     98% 0 mm meteobridge W/m2
09:19 8.2 °C 7.9 °C 1022.2 hPa Calm     98% 0 mm meteobridge W/m2
09:24 8.3 °C 8 °C 1022.2 hPa Calm     98% 0 mm meteobridge W/m2
09:29 8.3 °C 8 °C 1022.2 hPa Calm     98% 0 mm meteobridge W/m2
09:34 8.5 °C 8.2 °C 1022.2 hPa Calm   3.2 km/h 98% 0 mm meteobridge W/m2
09:39 8.6 °C 8.3 °C 1022.2 hPa Calm     98% 0 mm meteobridge W/m2
09:44 8.7 °C 8.4 °C 1022.2 hPa Calm     98% 0 mm meteobridge W/m2
09:49 8.8 °C 8.5 °C 1022.2 hPa Calm     98% 0 mm meteobridge W/m2
09:54 8.8 °C 8.5 °C 1022.2 hPa Calm     98% 0 mm meteobridge W/m2
09:59 8.9 °C 8.6 °C 1022.2 hPa Calm     98% 0 mm meteobridge W/m2
10:04 9 °C 8.7 °C 1022.2 hPa Calm     98% 0 mm meteobridge W/m2
10:09 9.2 °C 8.9 °C 1022.2 hPa Calm     98% 0 mm meteobridge W/m2
10:14 9.3 °C 9 °C 1022.2 hPa Calm     98% 0 mm meteobridge W/m2
10:19 9.4 °C 9.1 °C 1022.2 hPa Calm     98% 0 mm meteobridge W/m2
10:24 9.6 °C 9.3 °C 1022.2 hPa Calm     98% 0 mm meteobridge W/m2
10:29 9.7 °C 9.4 °C 1022.2 hPa Calm     98% 0 mm meteobridge W/m2
10:33 9.9 °C 9.6 °C 1022.2 hPa Calm     98% 0 mm meteobridge W/m2
10:39 10.1 °C 9.9 °C 1022.2 hPa Calm     99% 0 mm meteobridge W/m2
10:44 10.1 °C 9.8 °C 1022.2 hPa Calm     98% 0 mm meteobridge W/m2
10:49 10.2 °C 9.9 °C 1022.2 hPa Calm     98% 0 mm meteobridge W/m2
10:54 10.3 °C 10 °C 1022.2 hPa Calm     98% 0 mm meteobridge W/m2
10:59 10.4 °C 10.1 °C 1022.2 hPa Calm     98% 0 mm meteobridge W/m2
11:04 10.4 °C 10.1 °C 1022.2 hPa Calm     98% 0 mm meteobridge W/m2
11:09 10.5 °C 10.2 °C 1022.2 hPa Calm     98% 0 mm meteobridge W/m2
11:14 10.6 °C 10.3 °C 1022.2 hPa Calm     98% 0 mm meteobridge W/m2
11:19 10.6 °C 10.3 °C 1022.2 hPa Calm     98% 0 mm meteobridge W/m2
11:24 10.7 °C 10.4 °C 1022.2 hPa Calm     98% 0 mm meteobridge W/m2
11:29 10.8 °C 10.5 °C 1022.2 hPa Calm     98% 0 mm meteobridge W/m2
11:34 10.8 °C 10.5 °C 1022.2 hPa Calm     98% 0.25 mm meteobridge W/m2
11:39 10.8 °C 10.5 °C 1021.9 hPa Calm     98% 0.25 mm meteobridge W/m2
11:44 10.9 °C 10.6 °C 1021.9 hPa Calm     98% 0.25 mm meteobridge W/m2
11:49 10.9 °C 10.6 °C 1021.9 hPa Calm     98% 0.25 mm meteobridge W/m2
11:54 10.9 °C 10.6 °C 1021.9 hPa Calm     98% 0.25 mm meteobridge W/m2
11:59 11 °C 10.7 °C 1021.9 hPa Calm     98% 0.25 mm meteobridge W/m2
12:04 11 °C 10.7 °C 1021.9 hPa Calm     98% 0.25 mm meteobridge W/m2
12:09 11.1 °C 10.8 °C 1021.9 hPa Calm     98% 0.25 mm meteobridge W/m2
12:14 11.1 °C 10.8 °C 1021.9 hPa Calm     98% 0.25 mm meteobridge W/m2
12:19 11.1 °C 10.6 °C 1021.9 hPa Calm     97% 0.25 mm meteobridge W/m2
12:24 11.2 °C 10.9 °C 1021.6 hPa Calm     98% 0.25 mm meteobridge W/m2
12:29 11.3 °C 11 °C 1021.6 hPa Calm     98% 0.25 mm meteobridge W/m2
12:34 11.3 °C 11 °C 1021.6 hPa Calm     98% 0 mm meteobridge W/m2
12:39 11.4 °C 10.9 °C 1021.2 hPa Calm     97% 0 mm meteobridge W/m2
12:44 11.4 °C 10.6 °C 1021.2 hPa Calm     95% 0 mm meteobridge W/m2
12:49 11.5 °C 10.9 °C 1021.2 hPa Calm     96% 0 mm meteobridge W/m2
12:54 11.6 °C 11 °C 1020.9 hPa Calm     96% 0 mm meteobridge W/m2
12:59 11.8 °C 11.2 °C 1020.9 hPa Calm     96% 0 mm meteobridge W/m2
13:04 11.8 °C 10.7 °C 1020.5 hPa Calm     93% 0 mm meteobridge W/m2
13:09 12.1 °C 11 °C 1020.5 hPa Calm   6.4 km/h 93% 0 mm meteobridge W/m2
13:14 12.2 °C 10.3 °C 1020.5 hPa Calm   3.2 km/h 88% 0 mm meteobridge W/m2
13:19 12.3 °C 10 °C 1020.5 hPa Calm   3.2 km/h 86% 0 mm meteobridge W/m2
13:24 12.6 °C 9.6 °C 1020.5 hPa ESE 3.2 km/h 3.2 km/h 82% 0 mm meteobridge W/m2
13:29 12.9 °C 9.5 °C 1020.5 hPa Calm   1.6 km/h 80% 0 mm meteobridge W/m2
13:34 13.1 °C 9.5 °C 1020.2 hPa Calm   8 km/h 79% 0 mm meteobridge W/m2
13:39 13.4 °C 9.4 °C 1020.2 hPa Calm   1.6 km/h 77% 0 mm meteobridge W/m2
13:44 13.7 °C 9.1 °C 1020.2 hPa Calm   3.2 km/h 74% 0 mm meteobridge W/m2
13:49 13.7 °C 9.5 °C 1020.2 hPa SE 3.2 km/h 3.2 km/h 76% 0 mm meteobridge W/m2
13:54 13.7 °C 9.5 °C 1019.9 hPa SE 1.4 km/h 1.6 km/h 76% 0 mm meteobridge W/m2
13:59 13.8 °C 9.4 °C 1019.9 hPa Calm   1.6 km/h 75% 0 mm meteobridge W/m2
14:04 13.8 °C 9.2 °C 1019.9 hPa Calm   6.4 km/h 74% 0 mm meteobridge W/m2
14:09 14.1 °C 9.7 °C 1019.9 hPa Calm     75% 0 mm meteobridge W/m2
14:14 14.3 °C 9.7 °C 1019.9 hPa Calm     74% 0 mm meteobridge W/m2
14:19 14.6 °C 9.6 °C 1019.9 hPa Calm     72% 0 mm meteobridge W/m2
14:24 14.7 °C 9.1 °C 1019.5 hPa Calm     69% 0 mm meteobridge W/m2
14:29 14.7 °C 9.5 °C 1019.5 hPa Calm   1.6 km/h 71% 0 mm meteobridge W/m2
14:34 14.7 °C 9.1 °C 1019.5 hPa Calm     69% 0 mm meteobridge W/m2
14:39 14.6 °C 9 °C 1019.5 hPa Calm     69% 0 mm meteobridge W/m2
14:44 14.6 °C 9 °C 1019.5 hPa Calm     69% 0 mm meteobridge W/m2
14:49 14.5 °C 9.7 °C 1019.5 hPa Calm     73% 0 mm meteobridge W/m2
14:54 14.6 °C 9.4 °C 1019.5 hPa Calm     71% 0 mm meteobridge W/m2
14:59 14.6 °C 10 °C 1019.5 hPa Calm     74% 0 mm meteobridge W/m2
15:04 14.7 °C 9.7 °C 1019.5 hPa Calm     72% 0 mm meteobridge W/m2
15:09 14.7 °C 9.9 °C 1019.5 hPa Calm     73% 0 mm meteobridge W/m2
15:14 14.8 °C 10.2 °C 1019.2 hPa Calm     74% 0 mm meteobridge W/m2
15:19 14.8 °C 9.4 °C 1019.2 hPa Calm     70% 0 mm meteobridge W/m2
15:24 14.8 °C 9.6 °C 1019.2 hPa Calm   1.6 km/h 71% 0 mm meteobridge W/m2
15:29 14.8 °C 9.4 °C 1019.2 hPa Calm     70% 0 mm meteobridge W/m2
15:34 14.9 °C 9.5 °C 1019.2 hPa Calm     70% 0 mm meteobridge W/m2
15:38 14.9 °C 9.5 °C 1019.2 hPa Calm     70% 0 mm meteobridge W/m2
15:44 14.9 °C 9.5 °C 1019.2 hPa Calm     70% 0 mm meteobridge W/m2
15:49 14.9 °C 9.7 °C 1019.2 hPa Calm   1.6 km/h 71% 0 mm meteobridge W/m2
15:54 14.8 °C 9.4 °C 1019.2 hPa Calm     70% 0 mm meteobridge W/m2
15:59 14.8 °C 10 °C 1019.2 hPa Calm     73% 0 mm meteobridge W/m2
16:04 14.7 °C 9.3 °C 1019.2 hPa Calm     70% 0 mm meteobridge W/m2
16:09 14.7 °C 9.5 °C 1019.2 hPa Calm     71% 0 mm meteobridge W/m2
16:14 14.7 °C 9.5 °C 1019.2 hPa Calm     71% 0 mm meteobridge W/m2
16:19 14.6 °C 9.6 °C 1019.2 hPa Calm     72% 0 mm meteobridge W/m2
16:24 14.5 °C 9.5 °C 1019.2 hPa Calm     72% 0 mm meteobridge W/m2
16:29 14.4 °C 9.8 °C 1019.2 hPa Calm     74% 0 mm meteobridge W/m2
16:34 14.4 °C 10 °C 1019.2 hPa Calm     75% 0 mm meteobridge W/m2
16:39 14.2 °C 9.8 °C 1019.2 hPa Calm     75% 0 mm meteobridge W/m2
16:44 14.2 °C 9.4 °C 1019.2 hPa Calm     73% 0 mm meteobridge W/m2
16:49 14.2 °C 9.6 °C 1019.2 hPa Calm     74% 0 mm meteobridge W/m2
16:54 14.2 °C 9.8 °C 1019.2 hPa Calm     75% 0 mm meteobridge W/m2
16:59 14.2 °C 9.6 °C 1019.2 hPa Calm     74% 0 mm meteobridge W/m2
17:04 14.2 °C 9.2 °C 1019.2 hPa Calm     72% 0 mm meteobridge W/m2
17:09 14.2 °C 9.4 °C 1018.8 hPa Calm     73% 0 mm meteobridge W/m2
17:14 14.2 °C 9.6 °C 1018.8 hPa Calm     74% 0 mm meteobridge W/m2
17:19 14.1 °C 9.5 °C 1018.8 hPa Calm     74% 0 mm meteobridge W/m2
17:24 14.1 °C 9.5 °C 1018.8 hPa Calm     74% 0 mm meteobridge W/m2
17:29 13.9 °C 9.3 °C 1018.8 hPa Calm     74% 0 mm meteobridge W/m2
17:34 13.7 °C 9.3 °C 1018.8 hPa Calm     75% 0 mm meteobridge W/m2
17:39 13.6 °C 9.3 °C 1018.8 hPa Calm     75% 0 mm meteobridge W/m2
17:44 13.3 °C 9.2 °C 1018.8 hPa Calm     76% 0 mm meteobridge W/m2
17:49 13 °C 9.1 °C 1018.8 hPa Calm     77% 0 mm meteobridge W/m2
17:54 12.9 °C 9.2 °C 1018.8 hPa Calm     78% 0 mm meteobridge W/m2
17:59 12.7 °C 9.5 °C 1018.8 hPa Calm     81% 0 mm meteobridge W/m2
18:04 12.5 °C 9 °C 1018.8 hPa Calm     79% 0 mm meteobridge W/m2
18:09 12.3 °C 8.9 °C 1018.8 hPa Calm     80% 0 mm meteobridge W/m2
18:14 12.1 °C 8.8 °C 1018.8 hPa Calm     80% 0 mm meteobridge W/m2
18:19 11.8 °C 8.6 °C 1019.2 hPa Calm     81% 0 mm meteobridge W/m2
18:24 11.6 °C 8.6 °C 1019.2 hPa Calm     82% 0 mm meteobridge W/m2
18:29 11.4 °C 8.3 °C 1019.2 hPa Calm     81% 0 mm meteobridge W/m2
18:34 11.2 °C 8.2 °C 1019.2 hPa Calm     82% 0 mm meteobridge W/m2
18:39 10.9 °C 8.1 °C 1019.5 hPa Calm     83% 0 mm meteobridge W/m2
18:44 10.7 °C 8.1 °C 1019.5 hPa Calm     84% 0 mm meteobridge W/m2
18:49 10.5 °C 7.9 °C 1019.5 hPa Calm     84% 0 mm meteobridge W/m2
18:54 10.3 °C 7.7 °C 1019.5 hPa Calm     84% 0 mm meteobridge W/m2
18:59 10.1 °C 7.7 °C 1019.5 hPa Calm     85% 0 mm meteobridge W/m2
19:04 9.8 °C 7.6 °C 1019.5 hPa Calm     86% 0 mm meteobridge W/m2
19:09 9.7 °C 7.6 °C 1019.5 hPa Calm     87% 0 mm meteobridge W/m2
19:14 9.4 °C 7.5 °C 1019.5 hPa Calm     88% 0 mm meteobridge W/m2
19:19 9.3 °C 7.4 °C 1019.9 hPa Calm     88% 0 mm meteobridge W/m2
19:24 9.2 °C 7.5 °C 1019.9 hPa Calm     89% 0 mm meteobridge W/m2
19:29 9 °C 7.3 °C 1019.9 hPa Calm     89% 0 mm meteobridge W/m2
19:34 8.8 °C 7.1 °C 1019.9 hPa Calm     89% 0 mm meteobridge W/m2
19:39 8.7 °C 7.2 °C 1019.9 hPa Calm     90% 0 mm meteobridge W/m2
19:44 8.4 °C 7.5 °C 1019.9 hPa Calm     94% 0 mm meteobridge W/m2
19:49 8.3 °C 6.8 °C 1019.5 hPa Calm     90% 0 mm meteobridge W/m2
19:54 8.2 °C 6.7 °C 1019.5 hPa Calm     90% 0 mm meteobridge W/m2
19:59 8 °C 6.6 °C 1019.9 hPa Calm     91% 0 mm meteobridge W/m2
20:04 7.8 °C 6.4 °C 1019.9 hPa Calm     91% 0 mm meteobridge W/m2
20:09 7.7 °C 6.3 °C 1019.9 hPa Calm     91% 0 mm meteobridge W/m2
20:14 7.5 °C 6.1 °C 1019.9 hPa Calm     91% 0 mm meteobridge W/m2
20:19 7.4 °C 6.2 °C 1019.9 hPa Calm     92% 0 mm meteobridge W/m2
20:24 7.2 °C 6 °C 1019.9 hPa Calm     92% 0 mm meteobridge W/m2
20:29 7.1 °C 5.9 °C 1019.9 hPa Calm     92% 0 mm meteobridge W/m2
20:34 7 °C 5.8 °C 1019.9 hPa Calm     92% 0 mm meteobridge W/m2
20:39 6.9 °C 5.7 °C 1019.9 hPa Calm     92% 0 mm meteobridge W/m2
20:44 6.8 °C 5.7 °C 1019.9 hPa Calm     93% 0 mm meteobridge W/m2
20:49 6.7 °C 5.6 °C 1019.9 hPa Calm     93% 0 mm meteobridge W/m2
20:54 6.6 °C 5.5 °C 1019.9 hPa Calm     93% 0 mm meteobridge W/m2
20:59 6.4 °C 5.5 °C 1019.9 hPa Calm     94% 0 mm meteobridge W/m2
21:04 6.4 °C 5.4 °C 1019.9 hPa Calm     93% 0 mm meteobridge W/m2
21:09 6.3 °C 5.3 °C 1019.9 hPa Calm     93% 0 mm meteobridge W/m2
21:14 6.3 °C 5.4 °C 1019.9 hPa Calm     94% 0 mm meteobridge W/m2
21:19 6.2 °C 5.3 °C 1020.2 hPa Calm     94% 0 mm meteobridge W/m2
21:24 6.1 °C 5.2 °C 1020.2 hPa Calm     94% 0 mm meteobridge W/m2
21:29 5.9 °C 5 °C 1020.2 hPa Calm     94% 0 mm meteobridge W/m2
21:34 5.8 °C 4.9 °C 1020.2 hPa Calm     94% 0 mm meteobridge W/m2
21:39 5.7 °C 4.8 °C 1020.2 hPa Calm     94% 0 mm meteobridge W/m2
21:44 5.6 °C 4.7 °C 1020.2 hPa Calm     94% 0 mm meteobridge W/m2
21:49 5.5 °C 4.6 °C 1020.2 hPa Calm     94% 0 mm meteobridge W/m2
21:54 5.4 °C 4.5 °C 1020.2 hPa Calm     94% 0 mm meteobridge W/m2
21:58 5.3 °C 4.4 °C 1020.2 hPa Calm     94% 0 mm meteobridge W/m2
22:04 5.2 °C 4.3 °C 1020.2 hPa Calm     94% 0 mm meteobridge W/m2
22:09 5.2 °C 4.5 °C 1020.2 hPa Calm     95% 0 mm meteobridge W/m2
22:14 5.1 °C 4.4 °C 1020.5 hPa Calm     95% 0 mm meteobridge W/m2
22:19 5.1 °C 4.4 °C 1020.2 hPa Calm     95% 0 mm meteobridge W/m2
22:24 4.9 °C 4.2 °C 1020.2 hPa Calm     95% 0 mm meteobridge W/m2
22:29 4.8 °C 3.9 °C 1020.2 hPa Calm     94% 0 mm meteobridge W/m2
22:34 4.7 °C 4 °C 1020.2 hPa Calm     95% 0 mm meteobridge W/m2
22:39 4.7 °C 4 °C 1020.2 hPa Calm     95% 0 mm meteobridge W/m2
22:44 4.6 °C 3.9 °C 1020.2 hPa Calm     95% 0 mm meteobridge W/m2
22:49 4.6 °C 3.9 °C 1020.2 hPa Calm     95% 0 mm meteobridge W/m2
22:54 4.4 °C 3.7 °C 1020.2 hPa Calm     95% 0 mm meteobridge W/m2
22:59 4.4 °C 3.7 °C 1020.2 hPa Calm     95% 0 mm meteobridge W/m2
23:04 4.4 °C 3.7 °C 1019.9 hPa Calm     95% 0 mm meteobridge W/m2
23:09 4.4 °C 3.7 °C 1019.9 hPa Calm     95% 0 mm meteobridge W/m2
23:14 4.4 °C 3.7 °C 1019.9 hPa Calm     95% 0 mm meteobridge W/m2
23:19 4.3 °C 3.6 °C 1019.9 hPa Calm     95% 0 mm meteobridge W/m2
23:24 4.2 °C 3.5 °C 1019.9 hPa Calm     95% 0 mm meteobridge W/m2
23:29 4.2 °C 3.5 °C 1019.9 hPa Calm     95% 0 mm meteobridge W/m2
23:34 4.1 °C 3.4 °C 1020.2 hPa Calm     95% 0 mm meteobridge W/m2
23:39 4 °C 3.3 °C 1020.2 hPa Calm     95% 0 mm meteobridge W/m2
23:44 3.9 °C 3.2 °C 1020.2 hPa Calm     95% 0 mm meteobridge W/m2
23:49 3.8 °C 3.1 °C 1020.2 hPa Calm     95% 0 mm meteobridge W/m2
23:54 3.7 °C 3 °C 1020.2 hPa Calm     95% 0 mm meteobridge W/m2
23:59 3.7 °C 3 °C 1020.2 hPa Calm     95% 0 mm meteobridge W/m2
EllijayWeather
Compliments of Weather Underground - 2.5 mb